Regional Weather Roundup
Issued by NWS

Home | Current Version | Previous Version | Graphics & Text | Print | Product List | Glossary Off
Versions: 1 2 3 4 5 6 7 8 9 10 11 12 13 14 15 16 17 18 19 20 21 22 23 24 25 26 27 28 29 30 31 32 33 34 35 36 37 38 39 40 41 42 43 44 45 46 47 48 49 50

000
ASUS43 KFSD 261802
RWRSD

WEATHER ROUNDUP FOR SOUTH DAKOTA
NATIONAL WEATHER SERVICE SIOUX FALLS SD
1200 PM CST FRI DEC 26 2014

NOTE: "FAIR" INDICATES FEW OR NO CLOUDS BELOW 12,000 FEET WITH NO
SIGNIFICANT WEATHER AND/OR OBSTRUCTIONS TO VISIBILITY.


SDZ001>005-009-010-012>017-261900-
NORTHWEST AND NORTH CENTRAL SOUTH DAKOTA

CITY           SKY/WX    TMP DP  RH WIND       PRES   REMARKS
BUFFALO          N/A     21  13  71 NW13      30.03F WCI   9
FAITH            N/A     18   9  68 N14       30.13S WCI   4
MOBRIDGE       CLOUDY    20  14  77 N13       30.14F WCI   7
$$

SDZ012>016-024>037-041>051-057-063-072>074-261900-
SOUTHWEST AND SOUTH CENTRAL SOUTH DAKOTA

CITY           SKY/WX    TMP DP  RH WIND       PRES   REMARKS
RAPID CTY ARPT FLURRIES  20  14  77 NE10      30.10F WCI   9
PIERRE         FLURRIES  23  18  81 N12       30.14F WCI  12
CUSTER         CLOUDY    16  12  84 S5        29.93F WCI   9
PHILIP         CLOUDY    22  16  78 N12       30.14F WCI  10
PINE RIDGE     CLOUDY    20  14  77 N10       30.09S WCI   9
WINNER         CLOUDY    24  19  81 N16       30.12F WCI  11
$$

SDZ004>011-016>023-039-040-261900-
NORTHEAST SOUTH DAKOTA

CITY           SKY/WX    TMP DP  RH WIND       PRES   REMARKS
ABERDEEN       CLOUDY    24  18  77 N14       30.16S WCI  12
WATERTOWN      CLOUDY    22  17  81 N14       30.09R WCI   9
SISSETON         N/A     24  19  81 N16       30.13S WCI  11
$$

SDZ017-020-022-023-036>040-048>070-261900-
SOUTHEAST SOUTH DAKOTA

CITY           SKY/WX    TMP DP  RH WIND       PRES   REMARKS
SIOUX FALLS    CLOUDY    29  23  78 N15       30.06S WCI  18
HURON          CLOUDY    24  17  74 N18       30.13F WCI  10
MITCHELL       PTSUNNY   25  20  81 N18       30.13F WCI  11
YANKTON        CLOUDY    28  21  74 N17       30.08F WCI  16
$$

ABBREVIATIONS USED IN REMARKS
   TC - TEMPERATURE IN CELSIUS
  WCI - WIND CHILL INDEX
   HX - HEAT INDEX
  VSB - VISIBILITY



USA.gov is the U.S. government's official web portal to all federal, state and local government web resources and services.